| time (UTC) | temp F | wind direction | speed MPH | gust MPH | rain 1hr in | rain 24hr in | rain mn in | humidity % | barometer mb |
| 20260504110516 | 49 | 120 | 2.0 | 11.0 | 0.00 | 0.01 | 0.00 | 41 | 1009.8 |
| 20260504100520 | 52 | 256 | 1.0 | 3.0 | 0.00 | 0.01 | 0.00 | 35 | 1007.2 |
| 20260504081539 | 52 | 254 | 2.0 | 3.0 | 0.00 | 0.01 | 0.00 | 34 | 1006.8 |
| 20260504081018 | 52 | 253 | 1.0 | 3.0 | 0.00 | 0.01 | 0.00 | 35 | 1006.7 |
| 20260504080524 | 52 | 0 | 1.0 | 3.0 | 0.00 | 0.01 | 0.00 | 35 | 1006.8 |
| 20260504050517 | 53 | 224 | 1.0 | 4.0 | 0.00 | 0.01 | 0.01 | 37 | 1007.9 |
| 20260504045516 | 54 | 273 | 0.0 | 3.0 | 0.00 | 0.01 | 0.01 | 36 | 1008.0 |
| 20260504045021 | 54 | 273 | 0.0 | 3.0 | 0.00 | 0.01 | 0.01 | 35 | 1008.1 |
| 20260504044532 | 54 | 273 | 1.0 | 3.0 | 0.00 | 0.01 | 0.01 | 35 | 1008.1 |
| 20260504044014 | 55 | 273 | 1.0 | 3.0 | 0.00 | 0.01 | 0.01 | 35 | 1008.2 |
| 20260504043518 | 55 | 0 | 0.0 | 3.0 | 0.00 | 0.01 | 0.01 | 35 | 1008.2 |
| 20260504043045 | 55 | 273 | 1.0 | 4.0 | 0.00 | 0.01 | 0.01 | 34 | 1008.3 |
| 20260504042518 | 56 | 273 | 1.0 | 4.0 | 0.00 | 0.01 | 0.01 | 34 | 1008.3 |
| 20260504042017 | 56 | 274 | 2.0 | 4.0 | 0.00 | 0.01 | 0.01 | 34 | 1008.3 |
| 20260504041536 | 56 | 272 | 2.0 | 4.0 | 0.00 | 0.01 | 0.01 | 34 | 1008.3 |
| 20260504041017 | 56 | 273 | 1.0 | 4.0 | 0.00 | 0.01 | 0.01 | 33 | 1008.3 |
| 20260504040514 | 56 | 0 | 1.0 | 3.0 | 0.00 | 0.01 | 0.01 | 33 | 1008.4 |
| 20260504040034 | 56 | 272 | 1.0 | 4.0 | 0.00 | 0.01 | 0.01 | 32 | 1008.4 |
| 20260504035517 | 57 | 272 | 1.0 | 7.0 | 0.00 | 0.01 | 0.01 | 32 | 1008.5 |
| 20260504035014 | 57 | 265 | 3.0 | 7.0 | 0.00 | 0.01 | 0.01 | 32 | 1008.5 |
| 20260504034545 | 57 | 284 | 2.0 | 7.0 | 0.00 | 0.01 | 0.01 | 32 | 1008.5 |
| 20260504034017 | 56 | 312 | 2.0 | 6.0 | 0.00 | 0.01 | 0.01 | 32 | 1008.4 |
| 20260504033517 | 56 | 266 | 2.0 | 6.0 | 0.00 | 0.01 | 0.01 | 32 | 1008.4 |
| 20260504033032 | 57 | 0 | 0.0 | 2.0 | 0.00 | 0.01 | 0.01 | 32 | 1008.4 |
| 20260504032515 | 57 | 0 | 0.0 | 3.0 | 0.00 | 0.01 | 0.01 | 32 | 1008.4 |
| 20260504032018 | 57 | 0 | 0.0 | 3.0 | 0.00 | 0.01 | 0.01 | 31 | 1008.3 |
| 20260504031544 | 57 | 0 | 0.0 | 3.0 | 0.00 | 0.01 | 0.01 | 32 | 1008.3 |
| 20260504031014 | 58 | 267 | 1.0 | 4.0 | 0.00 | 0.01 | 0.01 | 31 | 1008.3 |
| 20260504030517 | 58 | 267 | 2.0 | 4.0 | 0.00 | 0.01 | 0.01 | 30 | 1008.3 |
| 20260504030041 | 59 | 267 | 1.0 | 6.0 | 0.00 | 0.01 | 0.01 | 29 | 1008.2 |
| 20260504025517 | 59 | 267 | 1.0 | 6.0 | 0.00 | 0.01 | 0.01 | 28 | 1008.3 |
| 20260504025017 | 59 | 267 | 2.0 | 6.0 | 0.00 | 0.01 | 0.01 | 28 | 1008.2 |
| 20260504024535 | 59 | 271 | 0.0 | 3.0 | 0.00 | 0.01 | 0.01 | 29 | 1008.2 |
| 20260504024019 | 59 | 0 | 0.0 | 2.0 | 0.00 | 0.01 | 0.01 | 30 | 1008.1 |
| 20260504023517 | 60 | 0 | 0.0 | 4.0 | 0.00 | 0.01 | 0.01 | 30 | 1008.0 |
| 20260504023032 | 60 | 271 | 2.0 | 4.0 | 0.00 | 0.01 | 0.01 | 30 | 1008.0 |
| 20260504022517 | 60 | 271 | 1.0 | 3.0 | 0.00 | 0.01 | 0.01 | 28 | 1008.0 |
| 20260504022015 | 61 | 0 | 0.0 | 2.0 | 0.00 | 0.01 | 0.01 | 28 | 1007.9 |
| 20260504021544 | 61 | 0 | 0.0 | 4.0 | 0.00 | 0.01 | 0.01 | 28 | 1008.0 |
| 20260504021014 | 61 | 0 | 0.0 | 4.0 | 0.00 | 0.01 | 0.01 | 28 | 1007.9 |
| 20260504020516 | 62 | 272 | 1.0 | 4.0 | 0.00 | 0.01 | 0.01 | 28 | 1007.9 |
| 20260504020037 | 62 | 0 | 0.0 | 2.0 | 0.00 | 0.01 | 0.01 | 28 | 1008.0 |
| 20260504015518 | 62 | 269 | 0.0 | 2.0 | 0.00 | 0.01 | 0.01 | 28 | 1008.1 |
| 20260504015015 | 62 | 0 | 0.0 | 2.0 | 0.00 | 0.01 | 0.01 | 28 | 1008.2 |
| 20260504014534 | 63 | 0 | 0.0 | 3.0 | 0.00 | 0.01 | 0.01 | 27 | 1008.2 |
| 20260504014017 | 63 | 0 | 0.0 | 3.0 | 0.00 | 0.01 | 0.01 | 27 | 1008.2 |
| 20260504013517 | 63 | 0 | 0.0 | 6.0 | 0.00 | 0.01 | 0.01 | 27 | 1008.3 |
| 20260504013036 | 63 | 0 | 1.0 | 6.0 | 0.00 | 0.01 | 0.01 | 26 | 1008.4 |
| 20260504012518 | 64 | 308 | 1.0 | 4.0 | 0.00 | 0.01 | 0.01 | 26 | 1008.5 |
| 20260504012017 | 64 | 0 | 1.0 | 4.0 | 0.00 | 0.01 | 0.01 | 26 | 1008.6 |
| 20260504011533 | 64 | 0 | 0.0 | 3.0 | 0.00 | 0.01 | 0.01 | 25 | 1008.5 |
| 20260504011021 | 65 | 0 | 0.0 | 3.0 | 0.00 | 0.01 | 0.01 | 24 | 1008.7 |
| 20260504010516 | 65 | 27 | 1.0 | 3.0 | 0.00 | 0.01 | 0.01 | 24 | 1008.7 |
| 20260504010036 | 66 | 0 | 0.0 | 3.0 | 0.00 | 0.01 | 0.01 | 23 | 1008.8 |
| 20260504005517 | 67 | 47 | 0.0 | 7.0 | 0.00 | 0.01 | 0.01 | 23 | 1008.9 |
| 20260504005016 | 67 | 61 | 0.0 | 7.0 | 0.00 | 0.01 | 0.01 | 22 | 1008.9 |
| 20260504004542 | 68 | 306 | 0.0 | 6.0 | 0.00 | 0.01 | 0.01 | 21 | 1008.9 |
| 20260504004019 | 68 | 269 | 2.0 | 6.0 | 0.00 | 0.01 | 0.01 | 21 | 1008.9 |
| 20260504003516 | 68 | 19 | 1.0 | 3.0 | 0.00 | 0.01 | 0.01 | 20 | 1009.1 |
| 20260504003034 | 68 | 288 | 1.0 | 9.0 | 0.00 | 0.01 | 0.01 | 20 | 1009.1 |
| 20260504002516 | 68 | 338 | 1.0 | 10.0 | 0.00 | 0.01 | 0.01 | 20 | 1009.1 |
| 20260504002016 | 68 | 269 | 3.0 | 10.0 | 0.00 | 0.01 | 0.01 | 20 | 1009.1 |
| 20260504001540 | 68 | 243 | 1.0 | 7.0 | 0.00 | 0.01 | 0.01 | 19 | 1009.3 |
| 20260504001015 | 68 | 0 | 3.0 | 8.0 | 0.00 | 0.01 | 0.01 | 20 | 1009.3 |
| 20260504000517 | 68 | 265 | 1.0 | 12.0 | 0.00 | 0.01 | 0.01 | 20 | 1009.4 |
| 20260504000031 | 68 | 68 | 1.0 | 15.0 | 0.00 | 0.01 | 0.01 | 21 | 1009.4 |
| 20260503235519 | 67 | 285 | 6.0 | 15.0 | 0.00 | 0.01 | 0.01 | 21 | 1009.6 |
| 20260503235017 | 67 | 258 | 8.0 | 15.0 | 0.00 | 0.01 | 0.01 | 24 | 1009.5 |
| 20260503234539 | 67 | 271 | 4.0 | 10.0 | 0.00 | 0.01 | 0.01 | 23 | 1009.4 |
| 20260503234017 | 66 | 10 | 2.0 | 10.0 | 0.00 | 0.01 | 0.01 | 23 | 1009.4 |
| 20260503233518 | 67 | 282 | 5.0 | 12.0 | 0.00 | 0.01 | 0.01 | 23 | 1009.5 |
| 20260503233036 | 67 | 0 | 3.0 | 12.0 | 0.00 | 0.01 | 0.01 | 23 | 1009.6 |
| 20260503232518 | 67 | 234 | 7.0 | 16.0 | 0.00 | 0.01 | 0.01 | 24 | 1009.9 |
| 20260503232018 | 67 | 234 | 7.0 | 16.0 | 0.00 | 0.01 | 0.01 | 24 | 1009.9 |
| 20260503231532 | 67 | 206 | 7.0 | 15.0 | 0.00 | 0.01 | 0.01 | 25 | 1010.0 |
| 20260503231018 | 67 | 239 | 2.0 | 15.0 | 0.00 | 0.01 | 0.01 | 28 | 1010.1 |
| 20260503230517 | 67 | 208 | 5.0 | 11.0 | 0.00 | 0.01 | 0.01 | 26 | 1010.2 |
| 20260503230043 | 67 | 228 | 6.0 | 11.0 | 0.00 | 0.01 | 0.01 | 26 | 1010.2 |
| 20260503225516 | 66 | 236 | 4.0 | 11.0 | 0.00 | 0.01 | 0.01 | 26 | 1010.2 |
| 20260503225016 | 66 | 236 | 5.0 | 13.0 | 0.00 | 0.01 | 0.01 | 26 | 1010.2 |
| 20260503224533 | 66 | 216 | 6.0 | 13.0 | 0.00 | 0.01 | 0.01 | 27 | 1010.4 |
| 20260503224019 | 65 | 217 | 4.0 | 9.0 | 0.00 | 0.01 | 0.01 | 29 | 1010.5 |
| 20260503223522 | 65 | 236 | 5.0 | 9.0 | 0.00 | 0.01 | 0.01 | 32 | 1010.5 |
| 20260503223036 | 65 | 236 | 4.0 | 9.0 | 0.00 | 0.01 | 0.01 | 32 | 1010.7 |
| 20260503222516 | 64 | 238 | 3.0 | 8.0 | 0.00 | 0.01 | 0.01 | 35 | 1010.8 |
| 20260503222013 | 64 | 213 | 5.0 | 8.0 | 0.00 | 0.01 | 0.01 | 35 | 1011.0 |
| 20260503221543 | 63 | 207 | 3.0 | 10.0 | 0.00 | 0.01 | 0.01 | 35 | 1011.1 |
| 20260503221017 | 63 | 270 | 5.0 | 10.0 | 0.00 | 0.01 | 0.01 | 36 | 1011.3 |
| 20260503220517 | 62 | 202 | 4.0 | 10.0 | 0.00 | 0.01 | 0.01 | 38 | 1011.3 |
| 20260503220038 | 62 | 232 | 5.0 | 10.0 | 0.00 | 0.01 | 0.01 | 39 | 1011.5 |
| 20260503215518 | 62 | 247 | 5.0 | 10.0 | 0.00 | 0.01 | 0.01 | 38 | 1011.6 |
| 20260503215014 | 61 | 239 | 4.0 | 9.0 | 0.00 | 0.01 | 0.01 | 42 | 1011.6 |
| 20260503214546 | 60 | 256 | 4.0 | 9.0 | 0.00 | 0.01 | 0.01 | 44 | 1011.8 |
| 20260503214017 | 59 | 260 | 3.0 | 9.0 | 0.00 | 0.01 | 0.01 | 44 | 1011.8 |
| 20260503213518 | 59 | 238 | 5.0 | 12.0 | 0.00 | 0.01 | 0.01 | 46 | 1011.9 |
| 20260503213035 | 58 | 246 | 6.0 | 12.0 | 0.00 | 0.01 | 0.01 | 48 | 1012.0 |
| 20260503212517 | 58 | 250 | 5.0 | 11.0 | 0.00 | 0.01 | 0.01 | 52 | 1012.2 |
| 20260503212018 | 57 | 218 | 5.0 | 9.0 | 0.00 | 0.01 | 0.01 | 51 | 1012.3 |
| 20260503211531 | 56 | 216 | 5.0 | 9.0 | 0.00 | 0.01 | 0.01 | 56 | 1012.5 |
| 20260503211017 | 56 | 190 | 2.0 | 11.0 | 0.00 | 0.01 | 0.01 | 53 | 1012.5 |
| 20260503210515 | 56 | 238 | 5.0 | 11.0 | 0.01 | 0.01 | 0.01 | 51 | 1013.0 |
| 20260503210032 | 56 | 254 | 4.0 | 9.0 | 0.01 | 0.01 | 0.01 | 54 | 1013.1 |
| 20260503205519 | 56 | 234 | 3.0 | 10.0 | 0.01 | 0.01 | 0.01 | 57 | 1013.1 |
| 20260503205021 | 57 | 205 | 4.0 | 10.0 | 0.01 | 0.01 | 0.01 | 57 | 1013.3 |
| 20260503204539 | 56 | 232 | 3.0 | 7.0 | 0.01 | 0.01 | 0.01 | 60 | 1013.2 |
| 20260503204017 | 55 | 241 | 4.0 | 7.0 | 0.01 | 0.01 | 0.01 | 59 | 1013.1 |
| 20260503203521 | 54 | 222 | 3.0 | 8.0 | 0.01 | 0.01 | 0.01 | 64 | 1013.1 |
| 20260503203031 | 53 | 228 | 2.0 | 8.0 | 0.01 | 0.01 | 0.01 | 63 | 1013.3 |
| 20260503202519 | 52 | 223 | 4.0 | 8.0 | 0.01 | 0.01 | 0.01 | 60 | 1013.5 |
| 20260503202017 | 52 | 231 | 1.0 | 7.0 | 0.01 | 0.01 | 0.01 | 58 | 1013.5 |
| 20260503201535 | 52 | 276 | 2.0 | 11.0 | 0.01 | 0.01 | 0.01 | 60 | 1013.6 |
| 20260503201016 | 52 | 248 | 5.0 | 13.0 | 0.01 | 0.01 | 0.01 | 60 | 1013.8 |
| 20260503200517 | 53 | 229 | 8.0 | 13.0 | 0.00 | 0.00 | 0.00 | 57 | 1014.2 |
| 20260503200037 | 54 | 261 | 3.0 | 8.0 | 0.00 | 0.00 | 0.00 | 49 | 1014.2 |
| 20260503195515 | 55 | 44 | 1.0 | 8.0 | 0.00 | 0.00 | 0.00 | 51 | 1014.0 |
| 20260503195018 | 56 | 320 | 1.0 | 10.0 | 0.00 | 0.00 | 0.00 | 50 | 1013.9 |
| 20260503194540 | 57 | 57 | 2.0 | 10.0 | 0.00 | 0.00 | 0.00 | 46 | 1013.8 |
| 20260503194018 | 59 | 38 | 4.0 | 10.0 | 0.00 | 0.00 | 0.00 | 39 | 1014.0 |
| 20260503193515 | 61 | 355 | 3.0 | 8.0 | 0.00 | 0.00 | 0.00 | 34 | 1013.9 |
| 20260503193035 | 62 | 304 | 3.0 | 10.0 | 0.00 | 0.00 | 0.00 | 31 | 1013.7 |
| 20260503192517 | 63 | 260 | 4.0 | 10.0 | 0.00 | 0.00 | 0.00 | 28 | 1013.4 |
| 20260503192014 | 64 | 254 | 5.0 | 9.0 | 0.00 | 0.00 | 0.00 | 28 | 1013.4 |
| 20260503191534 | 64 | 290 | 1.0 | 7.0 | 0.00 | 0.00 | 0.00 | 29 | 1013.3 |
| 20260503191018 | 64 | 68 | 1.0 | 11.0 | 0.00 | 0.00 | 0.00 | 32 | 1013.4 |
| 20260503190518 | 64 | 98 | 4.0 | 11.0 | 0.00 | 0.00 | 0.00 | 26 | 1013.4 |
| 20260503190039 | 65 | 290 | 5.0 | 11.0 | 0.00 | 0.00 | 0.00 | 27 | 1013.5 |
| 20260503185518 | 65 | 95 | 3.0 | 12.0 | 0.00 | 0.00 | 0.00 | 26 | 1013.5 |
| 20260503185020 | 65 | 306 | 5.0 | 12.0 | 0.00 | 0.00 | 0.00 | 25 | 1013.6 |
| 20260503184531 | 65 | 80 | 4.0 | 13.0 | 0.00 | 0.00 | 0.00 | 28 | 1013.7 |
| 20260503184014 | 65 | 267 | 5.0 | 13.0 | 0.00 | 0.00 | 0.00 | 28 | 1014.0 |
| 20260503183517 | 65 | 63 | 2.0 | 9.0 | 0.00 | 0.00 | 0.00 | 28 | 1014.0 |
| 20260503183040 | 65 | 288 | 2.0 | 9.0 | 0.00 | 0.00 | 0.00 | 29 | 1014.1 |
| 20260503182517 | 64 | 55 | 3.0 | 9.0 | 0.00 | 0.00 | 0.00 | 28 | 1014.2 |
| 20260503182015 | 62 | 55 | 2.0 | 10.0 | 0.00 | 0.00 | 0.00 | 29 | 1014.3 |
| 20260503181552 | 62 | 260 | 3.0 | 10.0 | 0.00 | 0.00 | 0.00 | 31 | 1014.3 |
| 20260503181017 | 62 | 229 | 3.0 | 10.0 | 0.00 | 0.00 | 0.00 | 31 | 1014.5 |
| 20260503180516 | 62 | 0 | 0.0 | 10.0 | 0.00 | 0.00 | 0.00 | 34 | 1014.7 |
| 20260503180045 | 62 | 90 | 4.0 | 10.0 | 0.00 | 0.00 | 0.00 | 33 | 1014.8 |
| 20260503175521 | 62 | 85 | 3.0 | 10.0 | 0.00 | 0.00 | 0.00 | 31 | 1014.9 |
| 20260503175018 | 62 | 38 | 5.0 | 10.0 | 0.00 | 0.00 | 0.00 | 32 | 1014.9 |
| 20260503174531 | 62 | 38 | 2.0 | 11.0 | 0.00 | 0.00 | 0.00 | 34 | 1015.0 |
| 20260503174017 | 62 | 227 | 3.0 | 11.0 | 0.00 | 0.00 | 0.00 | 32 | 1015.0 |
| 20260503173517 | 62 | 278 | 4.0 | 11.0 | 0.00 | 0.00 | 0.00 | 30 | 1015.0 |
| 20260503173036 | 62 | 89 | 2.0 | 12.0 | 0.00 | 0.00 | 0.00 | 32 | 1015.2 |
| 20260503172514 | 63 | 93 | 5.0 | 12.0 | 0.00 | 0.00 | 0.00 | 31 | 1015.1 |
| 20260503172017 | 63 | 71 | 5.0 | 13.0 | 0.00 | 0.00 | 0.00 | 32 | 1015.1 |
| 20260503171534 | 63 | 53 | 7.0 | 13.0 | 0.00 | 0.00 | 0.00 | 31 | 1015.2 |
| 20260503171017 | 63 | 113 | 4.0 | 11.0 | 0.00 | 0.00 | 0.00 | 32 | 1015.2 |
| 20260503170516 | 62 | 94 | 2.0 | 9.0 | 0.00 | 0.00 | 0.00 | 31 | 1015.3 |
| 20260503150517 | 59 | 290 | 4.0 | 12.0 | 0.00 | 0.00 | 0.00 | 35 | 1016.0 |
| 20260503131020 | 50 | 267 | 0.0 | 3.0 | 0.00 | 0.00 | 0.00 | 44 | 1016.5 |
| 20260503130520 | 50 | 267 | 0.0 | 3.0 | 0.00 | 0.00 | 0.00 | 45 | 1016.6 |